Location: Mt. Bigelow
(32.4165°N, 110.7345°W)
Time: 12:25:06
(UTC-07:00)

ISS - Visible Passes

Search period start: 23 February 2019 00:00
Search period end: 05 March 2019 00:00
Orbit: 403 x 411 km, 51.6° (Epoch: 24 February)

Date Brightness Start Highest point End Pass type
(mag) Time Alt. Az. Time Alt. Az. Time Alt. Az.
23 Feb -0.4 04:40:28 10° ESE 04:40:28 10° ESE 04:40:40 10° ESE visible
23 Feb -3.6 06:13:15 11° WSW 06:16:18 49° NW 06:19:28 10° NE visible
24 Feb -3.8 05:24:43 70° SSE 05:24:52 72° SE 05:28:07 10° NE visible
25 Feb -0.5 04:35:57 13° ENE 04:35:57 13° ENE 04:36:27 10° ENE visible
25 Feb -2.2 06:08:41 15° WNW 06:10:05 19° NW 06:12:31 10° NNE visible
26 Feb -2.2 05:19:43 25° N 05:19:43 25° N 05:21:32 10° NNE visible
28 Feb -1.0 05:14:05 11° N 05:14:05 11° N 05:14:17 10° N visible
